Aspen, CO

10:23 AM MST on February 12, 2016 (GMT -0700)
Aspen-Pitkin County / Sardy Field

Weather History for KASE - July, 2013

Change the Weather History Date:

Wednesday, July 17, 2013

  Actual Average Record
Temperature  
Mean Temperature 67 °F 64 °F  
Max Temperature 82 °F 81 °F 88 °F (2002)
Min Temperature 51 °F 47 °F 39 °F (1992)
Degree Days  
Heating Degree Days 0 2  
Month to date heating degree days 7 43  
Since 1 June heating degree days 153 272  
Since 1 July heating degree days 7 43  
Cooling Degree Days 2 1  
Month to date cooling degree days 29 15  
Year to date cooling degree days 45 19  
Since 1 June cooling degree days 45 19  
Growing Degree Days 16 (Base 50)    
Moisture  
Dew Point 48 °F    
Average Humidity 54    
Maximum Humidity 77    
Minimum Humidity 30    
Precipitation  
Precipitation T in 0.06 in 0.26 in (1981)
Month to date precipitation 0.23 0.82  
Year to date precipitation 7.00 8.89  
Sea Level Pressure  
Sea Level Pressure 30.02 in    
Wind  
Wind Speed 5 mph (South)    
Max Wind Speed 15 mph    
Max Gust Speed 20 mph    
Visibility 10 miles    
Events Rain , Thunderstorm    
T = Trace of Precipitation, MM = Missing Value Source: NWS Daily Summary

Daily Weather History Graph

Daily Weather History Graph

Search for Another Location

Airport or City:

Trip Planner

Search our weather history database for the weather conditions in past years. The results will help you decide how hot, cold, wet, or windy it might be!

Date:

Astronomy

Jul. 17, 2013 Rise Set
Actual Time 5:55 AM MDT 8:31 PM MDT
Civil Twilight 5:24 AM MDT 9:02 PM MDT
Nautical Twilight 4:45 AM MDT 9:41 PM MDT
Astronomical Twilight 4:01 AM MDT 10:24 PM MDT
Moon 3:24 PM MDT (7/17) 1:03 AM MDT (7/17)
Length of Visible Light 15h 38m
Length of Day
14h 36m
Waxing Gibbous, 68% of the Moon is Illuminated
Jul 17
Waxing Gibbous
Jul 22
Full
Jul 29
Last Quarter
Aug 6
New
Aug 14
First Quarter

Hourly Weather History & Observations

Time (MDT) Temp. Dew Point Humidity Pressure Visibility Wind Dir Wind Speed Gust Speed Precip Events Conditions
12:53 AM 64.9 °F 43.0 °F 45% 29.94 in 10.0 mi SE 11.5 mph - N/A   Overcast
1:53 AM 64.0 °F 43.0 °F 46% 29.94 in 10.0 mi SE 11.5 mph - N/A   Scattered Clouds
2:53 AM 62.1 °F 43.0 °F 50% 29.96 in 10.0 mi SE 12.7 mph - N/A   Mostly Cloudy
3:53 AM 60.1 °F 43.0 °F 53% 29.98 in 10.0 mi SSW 6.9 mph - N/A   Overcast
4:53 AM 57.0 °F 44.1 °F 62% 30.04 in 10.0 mi SW 6.9 mph - N/A   Overcast
5:53 AM 51.1 °F 44.1 °F 77% 30.06 in 10.0 mi SW 5.8 mph - N/A   Clear
6:53 AM 53.1 °F 44.1 °F 71% 30.06 in 10.0 mi SSW 5.8 mph - N/A   Clear
7:53 AM 59.0 °F 45.0 °F 60% 30.06 in 10.0 mi Variable 4.6 mph - N/A   Clear
8:53 AM 64.9 °F 46.0 °F 50% 30.04 in 10.0 mi East 3.5 mph - N/A   Clear
9:53 AM 70.0 °F 44.1 °F 39% 30.02 in 10.0 mi Calm Calm - N/A   Clear
10:53 AM 75.9 °F 44.1 °F 32% 29.98 in 10.0 mi ENE 5.8 mph - N/A   Clear
11:53 AM 78.1 °F 45.0 °F 31% 29.96 in 10.0 mi North 8.1 mph - N/A   Scattered Clouds
12:53 PM 80.1 °F 46.0 °F 30% 29.94 in 10.0 mi NW 9.2 mph 19.6 mph N/A   Scattered Clouds
1:53 PM 80.1 °F 46.0 °F 30% 29.92 in 10.0 mi Variable 6.9 mph 18.4 mph N/A   Scattered Clouds
2:53 PM 75.9 °F 50.0 °F 40% 29.92 in 10.0 mi East 6.9 mph - 0.00 in Rain Light Rain
3:53 PM 75.9 °F 48.9 °F 38% 29.93 in 10.0 mi SE 4.6 mph - 0.00 in   Mostly Cloudy
4:53 PM 73.0 °F 50.0 °F 44% 29.96 in 10.0 mi SSW 3.5 mph - N/A   Mostly Cloudy
5:53 PM 70.0 °F 53.1 °F 55% 30.01 in 10.0 mi Variable 3.5 mph - 0.00 in   Mostly Cloudy
6:39 PM 69.8 °F 53.6 °F 56% 30.34 in 10.0 mi Calm Calm - N/A Thunderstorm Thunderstorm
6:53 PM 69.8 °F 53.6 °F 56% 30.01 in 10.0 mi Calm Calm - N/A Thunderstorm Thunderstorm
7:53 PM 66.2 °F 53.6 °F 64% 30.01 in 10.0 mi SSW 4.6 mph - N/A Thunderstorm Partly Cloudy
8:06 PM 66.2 °F 53.6 °F 64% 30.37 in 10.0 mi South 4.6 mph - N/A   Partly Cloudy
8:53 PM 64.9 °F 53.1 °F 65% 30.00 in 10.0 mi SSE 5.8 mph - N/A   Partly Cloudy
9:53 PM 61.0 °F 52.0 °F 72% 30.02 in 10.0 mi South 3.5 mph - N/A   Clear
10:53 PM 59.0 °F 50.0 °F 72% 30.02 in 10.0 mi SSW 4.6 mph - N/A   Clear
11:53 PM 60.1 °F 50.0 °F 69% 30.02 in 10.0 mi SSW 4.6 mph - N/A   Mostly Cloudy